Year,Month,Day,Hour,Minute,Value (Times are PST for temperature in C)
2016,04,19,00,00,16.70
2016,04,19,00,01,16.60
2016,04,19,00,02,16.60
2016,04,19,00,03,16.50
2016,04,19,00,04,16.40
2016,04,19,00,05,16.40
2016,04,19,00,06,16.40
2016,04,19,00,07,16.30
2016,04,19,00,08,16.30
2016,04,19,00,09,16.20
2016,04,19,00,10,16.10
2016,04,19,00,11,16.10
2016,04,19,00,12,16.10
2016,04,19,00,13,16.00
2016,04,19,00,14,15.90
2016,04,19,00,15,15.80
2016,04,19,00,16,15.80
2016,04,19,00,17,15.80
2016,04,19,00,18,15.80
2016,04,19,00,19,15.70
2016,04,19,00,20,15.70
2016,04,19,00,21,15.60
2016,04,19,00,22,15.60
2016,04,19,00,23,15.60
2016,04,19,00,24,15.50
2016,04,19,00,25,15.50
2016,04,19,00,26,15.50
2016,04,19,00,27,15.50
2016,04,19,00,28,15.50
2016,04,19,00,29,15.50
2016,04,19,00,30,15.50
2016,04,19,00,31,15.50
2016,04,19,00,32,15.50
2016,04,19,00,33,15.50
2016,04,19,00,34,15.60
2016,04,19,00,35,15.60
2016,04,19,00,36,15.60
2016,04,19,00,37,15.60
2016,04,19,00,38,15.70
2016,04,19,00,39,15.70
2016,04,19,00,40,15.70
2016,04,19,00,41,15.70
2016,04,19,00,42,15.70
2016,04,19,00,43,15.80
2016,04,19,00,44,15.80
2016,04,19,00,45,15.80
2016,04,19,00,46,15.80
2016,04,19,00,47,15.80
2016,04,19,00,48,15.80
2016,04,19,00,49,15.80
2016,04,19,00,50,15.80
2016,04,19,00,51,15.70
2016,04,19,00,52,15.70
2016,04,19,00,53,15.70
2016,04,19,00,54,15.70
2016,04,19,00,55,15.70
2016,04,19,00,56,15.70
2016,04,19,00,57,15.60
2016,04,19,00,58,15.60
2016,04,19,00,59,15.60
2016,04,19,01,00,15.60
2016,04,19,01,01,15.60
2016,04,19,01,02,15.50
2016,04,19,01,03,15.50
2016,04,19,01,04,15.60
2016,04,19,01,05,15.60
2016,04,19,01,06,15.60
2016,04,19,01,07,15.60
2016,04,19,01,08,15.60
2016,04,19,01,09,15.60
2016,04,19,01,10,15.60
2016,04,19,01,11,15.50
2016,04,19,01,12,15.50
2016,04,19,01,13,15.50
2016,04,19,01,14,15.50
2016,04,19,01,15,15.50
2016,04,19,01,16,15.40
2016,04,19,01,17,15.40
2016,04,19,01,18,15.40
2016,04,19,01,19,15.40
2016,04,19,01,20,15.30
2016,04,19,01,21,15.30
2016,04,19,01,22,15.30
2016,04,19,01,23,15.30
2016,04,19,01,24,15.30
2016,04,19,01,25,15.30
2016,04,19,01,26,15.30
2016,04,19,01,27,15.30
2016,04,19,01,28,15.30
2016,04,19,01,29,15.30
2016,04,19,01,30,15.30
2016,04,19,01,31,15.30
2016,04,19,01,32,15.30
2016,04,19,01,33,15.30
2016,04,19,01,34,15.30
2016,04,19,01,35,15.30
2016,04,19,01,36,15.30
2016,04,19,01,37,15.30
2016,04,19,01,38,15.20
2016,04,19,01,39,15.20
2016,04,19,01,40,15.20
2016,04,19,01,41,15.20
2016,04,19,01,42,15.20
2016,04,19,01,43,15.20
2016,04,19,01,44,15.10
2016,04,19,01,45,15.10
2016,04,19,01,46,15.10
2016,04,19,01,47,15.00
2016,04,19,01,48,15.00
2016,04,19,01,49,15.00
2016,04,19,01,50,15.00
2016,04,19,01,51,14.90
2016,04,19,01,52,14.90
2016,04,19,01,53,14.90
2016,04,19,01,54,14.90
2016,04,19,01,55,14.80
2016,04,19,01,56,14.80
2016,04,19,01,57,14.80
2016,04,19,01,58,14.80
2016,04,19,01,59,14.80
2016,04,19,02,00,14.80
2016,04,19,02,01,14.80
2016,04,19,02,02,14.80
2016,04,19,02,03,14.80
2016,04,19,02,04,14.80
2016,04,19,02,05,14.70
2016,04,19,02,06,14.70
2016,04,19,02,07,14.70
2016,04,19,02,08,14.70
2016,04,19,02,09,14.70
2016,04,19,02,10,14.70
2016,04,19,02,11,14.70
2016,04,19,02,12,14.70
2016,04,19,02,13,14.70
2016,04,19,02,14,14.70
2016,04,19,02,15,14.70
2016,04,19,02,16,14.70
2016,04,19,02,17,14.60
2016,04,19,02,18,14.60
2016,04,19,02,19,14.60
2016,04,19,02,20,14.60
2016,04,19,02,21,14.60
2016,04,19,02,22,14.60
2016,04,19,02,23,14.60
2016,04,19,02,24,14.50
2016,04,19,02,25,14.50
2016,04,19,02,26,14.50
2016,04,19,02,27,14.50
2016,04,19,02,28,14.50
2016,04,19,02,29,14.40
2016,04,19,02,30,14.40
2016,04,19,02,31,14.40
2016,04,19,02,32,14.40
2016,04,19,02,33,14.40
2016,04,19,02,34,14.40
2016,04,19,02,35,14.40
2016,04,19,02,36,14.30
2016,04,19,02,37,14.30
2016,04,19,02,38,14.30
2016,04,19,02,39,14.30
2016,04,19,02,40,14.20
2016,04,19,02,41,14.20
2016,04,19,02,42,14.20
2016,04,19,02,43,14.20
2016,04,19,02,44,14.20
2016,04,19,02,45,14.20
2016,04,19,02,46,14.10
2016,04,19,02,47,14.10
2016,04,19,02,48,14.10
2016,04,19,02,49,14.00
2016,04,19,02,50,14.00
2016,04,19,02,51,14.00
2016,04,19,02,52,14.00
2016,04,19,02,53,13.90
2016,04,19,02,54,13.90
2016,04,19,02,55,13.90
2016,04,19,02,56,13.90
2016,04,19,02,57,13.90
2016,04,19,02,58,13.80
2016,04,19,02,59,13.80
2016,04,19,03,00,13.80
2016,04,19,03,01,13.80
2016,04,19,03,02,13.80
2016,04,19,03,03,13.80
2016,04,19,03,04,13.70
2016,04,19,03,05,13.70
2016,04,19,03,06,13.70
2016,04,19,03,07,13.70
2016,04,19,03,08,13.70
2016,04,19,03,09,13.70
2016,04,19,03,10,13.70
2016,04,19,03,11,13.70
2016,04,19,03,12,13.70
2016,04,19,03,13,13.70
2016,04,19,03,14,13.60
2016,04,19,03,15,13.60
2016,04,19,03,16,13.60
2016,04,19,03,17,13.60
2016,04,19,03,18,13.60
2016,04,19,03,19,13.50
2016,04,19,03,20,13.50
2016,04,19,03,21,13.50
2016,04,19,03,22,13.50
2016,04,19,03,23,13.50
2016,04,19,03,24,13.40
2016,04,19,03,25,13.40
2016,04,19,03,26,13.40
2016,04,19,03,27,13.40
2016,04,19,03,28,13.30
2016,04,19,03,29,13.30
2016,04,19,03,30,13.30
2016,04,19,03,31,13.30
2016,04,19,03,32,13.30
2016,04,19,03,33,13.30
2016,04,19,03,34,13.30
2016,04,19,03,35,13.30
2016,04,19,03,36,13.30
2016,04,19,03,37,13.30
2016,04,19,03,38,13.20
2016,04,19,03,39,13.20
2016,04,19,03,40,13.20
2016,04,19,03,41,13.20
2016,04,19,03,42,13.20
2016,04,19,03,43,13.10
2016,04,19,03,44,13.10
2016,04,19,03,45,13.10
2016,04,19,03,46,13.00
2016,04,19,03,47,13.00
2016,04,19,03,48,13.00
2016,04,19,03,49,12.90
2016,04,19,03,50,12.90
2016,04,19,03,51,12.90
2016,04,19,03,52,12.80
2016,04,19,03,53,12.80
2016,04,19,03,54,12.80
2016,04,19,03,55,12.80
2016,04,19,03,56,12.80
2016,04,19,03,57,12.80
2016,04,19,03,58,12.80
2016,04,19,03,59,12.80
2016,04,19,04,00,12.80
2016,04,19,04,01,12.80
2016,04,19,04,02,12.80
2016,04,19,04,03,12.80
2016,04,19,04,04,12.80
2016,04,19,04,05,12.80
2016,04,19,04,06,12.80
2016,04,19,04,07,12.80
2016,04,19,04,08,12.80
2016,04,19,04,09,12.80
2016,04,19,04,10,12.80
2016,04,19,04,11,12.70
2016,04,19,04,12,12.70
2016,04,19,04,13,12.70
2016,04,19,04,14,12.70
2016,04,19,04,15,12.70
2016,04,19,04,16,12.70
2016,04,19,04,17,12.70
2016,04,19,04,18,12.70
2016,04,19,04,19,12.70
2016,04,19,04,20,12.70
2016,04,19,04,21,12.70
2016,04,19,04,22,12.70
2016,04,19,04,23,12.70
2016,04,19,04,24,12.70
2016,04,19,04,25,12.70
2016,04,19,04,26,12.70
2016,04,19,04,27,12.70
2016,04,19,04,28,12.70
2016,04,19,04,29,12.70
2016,04,19,04,30,12.70
2016,04,19,04,31,12.70
2016,04,19,04,32,12.70
2016,04,19,04,33,12.70
2016,04,19,04,34,12.60
2016,04,19,04,35,12.60
2016,04,19,04,36,12.60
2016,04,19,04,37,12.60
2016,04,19,04,38,12.60
2016,04,19,04,39,12.60
2016,04,19,04,40,12.60
2016,04,19,04,41,12.60
2016,04,19,04,42,12.60
2016,04,19,04,43,12.60
2016,04,19,04,44,12.60
2016,04,19,04,45,12.60
2016,04,19,04,46,12.60
2016,04,19,04,47,12.60
2016,04,19,04,48,12.60
2016,04,19,04,49,12.60
2016,04,19,04,50,12.50
2016,04,19,04,51,12.50
2016,04,19,04,52,12.50
2016,04,19,04,53,12.50
2016,04,19,04,54,12.50
2016,04,19,04,55,12.50
2016,04,19,04,56,12.50
2016,04,19,04,57,12.50
2016,04,19,04,58,12.50
2016,04,19,04,59,12.50
2016,04,19,05,00,12.50
2016,04,19,05,01,12.50
2016,04,19,05,02,12.50
2016,04,19,05,03,12.50
2016,04,19,05,04,12.50
2016,04,19,05,05,12.50
2016,04,19,05,06,12.50
2016,04,19,05,07,12.50
2016,04,19,05,08,12.50
2016,04,19,05,09,12.50
2016,04,19,05,10,12.50
2016,04,19,05,11,12.50
2016,04,19,05,12,12.50
2016,04,19,05,13,12.50
2016,04,19,05,14,12.50
2016,04,19,05,15,12.50
2016,04,19,05,16,12.50
2016,04,19,05,17,12.50
2016,04,19,05,18,12.50
2016,04,19,05,19,12.50
2016,04,19,05,20,12.50
2016,04,19,05,21,12.50
2016,04,19,05,22,12.50
2016,04,19,05,23,12.50
2016,04,19,05,24,12.40
2016,04,19,05,25,12.40
2016,04,19,05,26,12.40
2016,04,19,05,27,12.40
2016,04,19,05,28,12.40
2016,04,19,05,29,12.40
2016,04,19,05,30,12.40
2016,04,19,05,31,12.30
2016,04,19,05,32,12.30
2016,04,19,05,33,12.30
2016,04,19,05,34,12.30
2016,04,19,05,35,12.30
2016,04,19,05,36,12.30
2016,04,19,05,37,12.30
2016,04,19,05,38,12.30
2016,04,19,05,39,12.30
2016,04,19,05,40,12.20
2016,04,19,05,41,12.20
2016,04,19,05,42,12.20
2016,04,19,05,43,12.20
2016,04,19,05,44,12.20
2016,04,19,05,45,12.10
2016,04,19,05,46,12.10
2016,04,19,05,47,12.10
2016,04,19,05,48,12.10
2016,04,19,05,49,12.10
2016,04,19,05,50,12.00
2016,04,19,05,51,12.00
2016,04,19,05,52,12.00
2016,04,19,05,53,12.00
2016,04,19,05,54,12.00
2016,04,19,05,55,12.00
2016,04,19,05,56,12.00
2016,04,19,05,57,12.00
2016,04,19,05,58,12.00
2016,04,19,05,59,12.00
2016,04,19,06,00,12.00
2016,04,19,06,01,12.00
2016,04,19,06,02,12.00
2016,04,19,06,03,11.90
2016,04,19,06,04,11.90
2016,04,19,06,05,11.90
2016,04,19,06,06,11.90
2016,04,19,06,07,11.90
2016,04,19,06,08,11.90
2016,04,19,06,09,11.90
2016,04,19,06,10,11.90
2016,04,19,06,11,11.90
2016,04,19,06,12,11.90
2016,04,19,06,13,11.90
2016,04,19,06,14,11.90
2016,04,19,06,15,11.80
2016,04,19,06,16,11.80
2016,04,19,06,17,11.80
2016,04,19,06,18,11.80
2016,04,19,06,19,11.80
2016,04,19,06,20,11.80
2016,04,19,06,21,11.80
2016,04,19,06,22,11.80
2016,04,19,06,23,11.80
2016,04,19,06,24,11.80
2016,04,19,06,25,11.80
2016,04,19,06,26,11.80
2016,04,19,06,27,11.80
2016,04,19,06,28,11.80
2016,04,19,06,29,11.70
2016,04,19,06,30,11.70
2016,04,19,06,31,11.70
2016,04,19,06,32,11.70
2016,04,19,06,33,11.70
2016,04,19,06,34,11.70
2016,04,19,06,35,11.70
2016,04,19,06,36,11.70
2016,04,19,06,37,11.70
2016,04,19,06,38,11.60
2016,04,19,06,39,11.60
2016,04,19,06,40,11.60
2016,04,19,06,41,11.60
2016,04,19,06,42,11.60
2016,04,19,06,43,11.60
2016,04,19,06,44,11.60
2016,04,19,06,45,11.60
2016,04,19,06,46,11.60
2016,04,19,06,47,11.60
2016,04,19,06,48,11.60
2016,04,19,06,49,11.60
2016,04,19,06,50,11.60
2016,04,19,06,51,11.60
2016,04,19,06,52,11.60
2016,04,19,06,53,11.60
2016,04,19,06,54,11.60
2016,04,19,06,55,11.60
2016,04,19,06,56,11.60
2016,04,19,06,57,11.60
2016,04,19,06,58,11.60
2016,04,19,06,59,11.60
2016,04,19,07,00,11.60
2016,04,19,07,01,11.60
2016,04,19,07,02,11.60
2016,04,19,07,03,11.60
2016,04,19,07,04,11.60
2016,04,19,07,05,11.60
2016,04,19,07,06,11.60
2016,04,19,07,07,11.60
2016,04,19,07,08,11.60
2016,04,19,07,09,11.60
2016,04,19,07,10,11.60
2016,04,19,07,11,11.60
2016,04,19,07,12,11.60
2016,04,19,07,13,11.60
2016,04,19,07,14,11.60
2016,04,19,07,15,11.60
2016,04,19,07,16,11.70
2016,04,19,07,17,11.70
2016,04,19,07,18,11.70
2016,04,19,07,19,11.70
2016,04,19,07,20,11.80
2016,04,19,07,21,11.80
2016,04,19,07,22,11.80
2016,04,19,07,23,11.80
2016,04,19,07,24,11.80
2016,04,19,07,25,11.80
2016,04,19,07,26,11.90
2016,04,19,07,27,11.90
2016,04,19,07,28,11.90
2016,04,19,07,29,12.00
2016,04,19,07,30,12.00
2016,04,19,07,31,12.10
2016,04,19,07,32,12.10
2016,04,19,07,33,12.10
2016,04,19,07,34,12.20
2016,04,19,07,35,12.20
2016,04,19,07,36,12.30
2016,04,19,07,37,12.30
2016,04,19,07,38,12.30
2016,04,19,07,39,12.40
2016,04,19,07,40,12.40
2016,04,19,07,41,12.50
2016,04,19,07,42,12.50
2016,04,19,07,43,12.60
2016,04,19,07,44,12.60
2016,04,19,07,45,12.70
2016,04,19,07,46,12.80
2016,04,19,07,47,12.80
2016,04,19,07,48,12.80
2016,04,19,07,49,12.80
2016,04,19,07,50,12.90
2016,04,19,07,51,12.90
2016,04,19,07,52,13.00
2016,04,19,07,53,13.00
2016,04,19,07,54,13.10
2016,04,19,07,55,13.10
2016,04,19,07,56,13.10
2016,04,19,07,57,13.20
2016,04,19,07,58,13.20
2016,04,19,07,59,13.20
2016,04,19,08,00,13.20
2016,04,19,08,01,13.30
2016,04,19,08,02,13.30
2016,04,19,08,03,13.30
2016,04,19,08,04,13.30
2016,04,19,08,05,13.40
2016,04,19,08,06,13.40
2016,04,19,08,07,13.50
2016,04,19,08,08,13.50
2016,04,19,08,09,13.50
2016,04,19,08,10,13.60
2016,04,19,08,11,13.60
2016,04,19,08,12,13.60
2016,04,19,08,13,13.60
2016,04,19,08,14,13.70
2016,04,19,08,15,13.70
2016,04,19,08,16,13.70
2016,04,19,08,17,13.70
2016,04,19,08,18,13.70
2016,04,19,08,19,13.70
2016,04,19,08,20,13.80
2016,04,19,08,21,13.80
2016,04,19,08,22,13.80
2016,04,19,08,23,13.80
2016,04,19,08,24,13.80
2016,04,19,08,25,13.80
2016,04,19,08,26,13.90
2016,04,19,08,27,13.90
2016,04,19,08,28,14.00
2016,04,19,08,29,14.10
2016,04,19,08,30,14.10
2016,04,19,08,31,14.20
2016,04,19,08,32,14.20
2016,04,19,08,33,14.20
2016,04,19,08,34,14.20
2016,04,19,08,35,14.30
2016,04,19,08,36,14.40
2016,04,19,08,37,14.50
2016,04,19,08,38,14.50
2016,04,19,08,39,14.60
2016,04,19,08,40,14.60
2016,04,19,08,41,14.60
2016,04,19,08,42,14.60
2016,04,19,08,43,14.60
2016,04,19,08,44,14.60
2016,04,19,08,45,14.70
2016,04,19,08,46,14.70
2016,04,19,08,47,14.70
2016,04,19,08,48,14.70
2016,04,19,08,49,14.80
2016,04,19,08,50,14.80
2016,04,19,08,51,14.80
2016,04,19,08,52,14.80
2016,04,19,08,53,14.80
2016,04,19,08,54,14.80
2016,04,19,08,55,14.80
2016,04,19,08,56,14.80
2016,04,19,08,57,14.80
2016,04,19,08,58,14.80
2016,04,19,08,59,14.70
2016,04,19,09,00,14.70
2016,04,19,09,01,14.70
2016,04,19,09,02,14.70
2016,04,19,09,03,14.70
2016,04,19,09,04,14.70
2016,04,19,09,05,14.70
2016,04,19,09,06,14.70
2016,04,19,09,07,14.70
2016,04,19,09,08,14.80
2016,04,19,09,09,14.80
2016,04,19,09,10,14.90
2016,04,19,09,11,14.90
2016,04,19,09,12,15.00
2016,04,19,09,13,15.10
2016,04,19,09,14,15.10
2016,04,19,09,15,15.20
2016,04,19,09,16,15.20
2016,04,19,09,17,15.20
2016,04,19,09,18,15.30
2016,04,19,09,19,15.30
2016,04,19,09,20,15.30
2016,04,19,09,21,15.30
2016,04,19,09,22,15.30
2016,04,19,09,23,15.30
2016,04,19,09,24,15.30
2016,04,19,09,25,15.30
2016,04,19,09,26,15.40
2016,04,19,09,27,15.40
2016,04,19,09,28,15.40
2016,04,19,09,29,15.30
2016,04,19,09,30,15.30
2016,04,19,09,31,15.30
2016,04,19,09,32,15.40
2016,04,19,09,33,15.40
2016,04,19,09,34,15.30
2016,04,19,09,35,15.30
2016,04,19,09,36,15.30
2016,04,19,09,37,15.40
2016,04,19,09,38,15.50
2016,04,19,09,39,15.50
2016,04,19,09,40,15.60
2016,04,19,09,41,15.60
2016,04,19,09,42,15.70
2016,04,19,09,43,15.70
2016,04,19,09,44,15.80
2016,04,19,09,45,15.80
2016,04,19,09,46,15.80
2016,04,19,09,47,15.90
2016,04,19,09,48,15.90
2016,04,19,09,49,15.90
2016,04,19,09,50,16.00
2016,04,19,09,51,16.10
2016,04,19,09,52,16.10
2016,04,19,09,53,16.10
2016,04,19,09,54,16.10
2016,04,19,09,55,16.10
2016,04,19,09,56,16.10
2016,04,19,09,57,16.20
2016,04,19,09,58,16.20
2016,04,19,09,59,16.10
2016,04,19,10,00,16.20
2016,04,19,10,01,16.20
2016,04,19,10,02,16.30
2016,04,19,10,03,16.30
2016,04,19,10,04,16.40
2016,04,19,10,05,16.40
2016,04,19,10,06,16.40
2016,04,19,10,07,16.40
2016,04,19,10,08,16.40
2016,04,19,10,09,16.40
2016,04,19,10,10,16.40
2016,04,19,10,11,16.40
2016,04,19,10,12,16.40
2016,04,19,10,13,16.30
2016,04,19,10,14,16.30
2016,04,19,10,15,16.40
2016,04,19,10,16,16.40
2016,04,19,10,17,16.40
2016,04,19,10,18,16.50
2016,04,19,10,19,16.70
2016,04,19,10,20,16.70
2016,04,19,10,21,16.80
2016,04,19,10,22,16.80
2016,04,19,10,23,16.80
2016,04,19,10,24,16.80
2016,04,19,10,25,16.90
2016,04,19,10,26,16.90
2016,04,19,10,27,16.90
2016,04,19,10,28,16.90
2016,04,19,10,29,17.00
2016,04,19,10,30,17.00
2016,04,19,10,31,17.00
2016,04,19,10,32,17.10
2016,04,19,10,33,17.10
2016,04,19,10,34,17.10
2016,04,19,10,35,17.10
2016,04,19,10,36,17.10
2016,04,19,10,37,17.10
2016,04,19,10,38,17.20
2016,04,19,10,39,17.20
2016,04,19,10,40,17.20
2016,04,19,10,41,17.20
2016,04,19,10,42,17.10
2016,04,19,10,43,17.10
2016,04,19,10,44,17.10
2016,04,19,10,45,17.10
2016,04,19,10,46,17.10
2016,04,19,10,47,17.10
2016,04,19,10,48,17.10
2016,04,19,10,49,17.20
2016,04,19,10,50,17.30
2016,04,19,10,51,17.30
2016,04,19,10,52,17.40
2016,04,19,10,53,17.50
2016,04,19,10,54,17.60
2016,04,19,10,55,17.70
2016,04,19,10,56,17.70
2016,04,19,10,57,17.70
2016,04,19,10,58,17.70
2016,04,19,10,59,17.70
2016,04,19,11,00,17.60
2016,04,19,11,01,17.60
2016,04,19,11,02,17.70
2016,04,19,11,03,17.60
2016,04,19,11,04,17.60
2016,04,19,11,05,17.70
2016,04,19,11,06,17.70
2016,04,19,11,07,17.80
2016,04,19,11,08,17.90
2016,04,19,11,09,18.00
2016,04,19,11,10,18.10
2016,04,19,11,11,18.10
2016,04,19,11,12,18.20
2016,04,19,11,13,18.20
2016,04,19,11,14,18.30
2016,04,19,11,15,18.40
2016,04,19,11,16,18.40
2016,04,19,11,17,18.50
2016,04,19,11,18,18.50
2016,04,19,11,19,18.60
2016,04,19,11,20,18.60
2016,04,19,11,21,18.60
2016,04,19,11,22,18.60
2016,04,19,11,23,18.60
2016,04,19,11,24,18.70
2016,04,19,11,25,18.70
2016,04,19,11,26,18.80
2016,04,19,11,27,18.80
2016,04,19,11,28,18.80
2016,04,19,11,29,18.80
2016,04,19,11,30,18.90
2016,04,19,11,31,18.80
2016,04,19,11,32,18.80
2016,04,19,11,33,18.70
2016,04,19,11,34,18.70
2016,04,19,11,35,18.60
2016,04,19,11,36,18.60
2016,04,19,11,37,18.50
2016,04,19,11,38,18.40
2016,04,19,11,39,18.30
2016,04,19,11,40,18.30
2016,04,19,11,41,18.30
2016,04,19,11,42,18.40
2016,04,19,11,43,18.40
2016,04,19,11,44,18.50
2016,04,19,11,45,18.50
2016,04,19,11,46,18.50
2016,04,19,11,47,18.60
2016,04,19,11,48,18.70
2016,04,19,11,49,18.70
2016,04,19,11,50,18.60
2016,04,19,11,51,18.60
2016,04,19,11,52,18.70
2016,04,19,11,53,18.70
2016,04,19,11,54,18.80
2016,04,19,11,55,18.80
2016,04,19,11,56,18.90
2016,04,19,11,57,18.90
2016,04,19,11,58,18.90
2016,04,19,11,59,18.90
2016,04,19,12,00,18.90
2016,04,19,12,01,18.80
2016,04,19,12,02,18.70
2016,04,19,12,03,18.70
2016,04,19,12,04,18.60
2016,04,19,12,05,18.60
2016,04,19,12,06,18.70
2016,04,19,12,07,18.70
2016,04,19,12,08,18.70
2016,04,19,12,09,18.70
2016,04,19,12,10,18.80
2016,04,19,12,11,18.90
2016,04,19,12,12,18.90
2016,04,19,12,13,19.10
2016,04,19,12,14,19.10
2016,04,19,12,15,19.10
2016,04,19,12,16,19.10
2016,04,19,12,17,19.10
2016,04,19,12,18,19.20
2016,04,19,12,19,19.40
2016,04,19,12,20,19.40
2016,04,19,12,21,19.50
2016,04,19,12,22,19.60
2016,04,19,12,23,19.60
2016,04,19,12,24,19.70
2016,04,19,12,25,19.80
2016,04,19,12,26,19.80
2016,04,19,12,27,19.80
2016,04,19,12,28,19.80
2016,04,19,12,29,19.70
2016,04,19,12,30,19.70
2016,04,19,12,31,19.70
2016,04,19,12,32,19.70
2016,04,19,12,33,19.70
2016,04,19,12,34,19.70
2016,04,19,12,35,19.70
2016,04,19,12,36,19.80
2016,04,19,12,37,19.90
2016,04,19,12,38,19.90
2016,04,19,12,39,19.90
2016,04,19,12,40,19.80
2016,04,19,12,41,19.70
2016,04,19,12,42,19.70
2016,04,19,12,43,19.70
2016,04,19,12,44,19.70
2016,04,19,12,45,19.90
2016,04,19,12,46,19.90
2016,04,19,12,47,20.00
2016,04,19,12,48,20.20
2016,04,19,12,49,20.20
2016,04,19,12,50,20.30
2016,04,19,12,51,20.40
2016,04,19,12,52,20.40
2016,04,19,12,53,20.40
2016,04,19,12,54,20.40
2016,04,19,12,55,20.40
2016,04,19,12,56,20.30
2016,04,19,12,57,20.20
2016,04,19,12,58,20.20
2016,04,19,12,59,20.20
2016,04,19,13,00,20.10
2016,04,19,13,01,20.00
2016,04,19,13,02,19.90
2016,04,19,13,03,19.90
2016,04,19,13,04,19.80
2016,04,19,13,05,19.80
2016,04,19,13,06,19.80
2016,04,19,13,07,19.80
2016,04,19,13,08,19.80
2016,04,19,13,09,19.80
2016,04,19,13,10,19.80
2016,04,19,13,11,19.90
2016,04,19,13,12,19.90
2016,04,19,13,13,19.90
2016,04,19,13,14,19.90
2016,04,19,13,15,20.10
2016,04,19,13,16,20.10
2016,04,19,13,17,20.20
2016,04,19,13,18,20.20
2016,04,19,13,19,20.30
2016,04,19,13,20,20.40
2016,04,19,13,21,20.40
2016,04,19,13,22,20.50
2016,04,19,13,23,20.50
2016,04,19,13,24,20.50
2016,04,19,13,25,20.50
2016,04,19,13,26,20.40
2016,04,19,13,27,20.50
2016,04,19,13,28,20.50
2016,04,19,13,29,20.50
2016,04,19,13,30,20.50
2016,04,19,13,31,20.50
2016,04,19,13,32,20.50
2016,04,19,13,33,20.50
2016,04,19,13,34,20.40
2016,04,19,13,35,20.40
2016,04,19,13,36,20.40
2016,04,19,13,37,20.40
2016,04,19,13,38,20.40
2016,04,19,13,39,20.40
2016,04,19,13,40,20.30
2016,04,19,13,41,20.40
2016,04,19,13,42,20.50
2016,04,19,13,43,20.50
2016,04,19,13,44,20.50
2016,04,19,13,45,20.60
2016,04,19,13,46,20.60
2016,04,19,13,47,20.60
2016,04,19,13,48,20.60
2016,04,19,13,49,20.60
2016,04,19,13,50,20.60
2016,04,19,13,51,20.70
2016,04,19,13,52,20.80
2016,04,19,13,53,20.80
2016,04,19,13,54,20.90
2016,04,19,13,55,20.90
2016,04,19,13,56,20.90
2016,04,19,13,57,20.90
2016,04,19,13,58,20.90
2016,04,19,13,59,21.00
2016,04,19,14,00,21.00
2016,04,19,14,01,21.10
2016,04,19,14,02,21.20
2016,04,19,14,03,21.20
2016,04,19,14,04,21.20
2016,04,19,14,05,21.20
2016,04,19,14,06,21.20
2016,04,19,14,07,21.20
2016,04,19,14,08,21.20
2016,04,19,14,09,21.20
2016,04,19,14,10,21.10
2016,04,19,14,11,21.00
2016,04,19,14,12,20.90
2016,04,19,14,13,20.90
2016,04,19,14,14,20.80
2016,04,19,14,15,20.80
2016,04,19,14,16,20.90
2016,04,19,14,17,20.90
2016,04,19,14,18,20.90
2016,04,19,14,19,20.90
2016,04,19,14,20,20.90
2016,04,19,14,21,20.80
2016,04,19,14,22,20.80
2016,04,19,14,23,20.80
2016,04,19,14,24,20.80
2016,04,19,14,25,20.70
2016,04,19,14,26,20.80
2016,04,19,14,27,20.80
2016,04,19,14,28,20.80
2016,04,19,14,29,20.90
2016,04,19,14,30,21.00
2016,04,19,14,31,21.00
2016,04,19,14,32,21.00
2016,04,19,14,33,21.00
2016,04,19,14,34,21.00
2016,04,19,14,35,21.00
2016,04,19,14,36,21.10
2016,04,19,14,37,21.10
2016,04,19,14,38,21.20
2016,04,19,14,39,21.30
2016,04,19,14,40,21.30
2016,04,19,14,41,21.30
2016,04,19,14,42,21.30
2016,04,19,14,43,21.30
2016,04,19,14,44,21.30
2016,04,19,14,45,21.30
2016,04,19,14,46,21.30
2016,04,19,14,47,21.30
2016,04,19,14,48,21.30
2016,04,19,14,49,21.20
2016,04,19,14,50,21.20
2016,04,19,14,51,21.20
2016,04,19,14,52,21.20
2016,04,19,14,53,21.20
2016,04,19,14,54,21.30
2016,04,19,14,55,21.30
2016,04,19,14,56,21.30
2016,04,19,14,57,21.40
2016,04,19,14,58,21.50
2016,04,19,14,59,21.60
2016,04,19,15,00,21.60
2016,04,19,15,01,21.60
2016,04,19,15,02,21.60
2016,04,19,15,03,21.60
2016,04,19,15,04,21.60
2016,04,19,15,05,21.40
2016,04,19,15,06,21.40
2016,04,19,15,07,21.30
2016,04,19,15,08,21.40
2016,04,19,15,09,21.40
2016,04,19,15,10,21.50
2016,04,19,15,11,21.60
2016,04,19,15,12,21.60
2016,04,19,15,13,21.60
2016,04,19,15,14,21.60
2016,04,19,15,15,21.70
2016,04,19,15,16,21.70
2016,04,19,15,17,21.80
2016,04,19,15,18,21.80
2016,04,19,15,19,21.80
2016,04,19,15,20,21.80
2016,04,19,15,21,21.90
2016,04,19,15,22,21.90
2016,04,19,15,23,22.00
2016,04,19,15,24,22.00
2016,04,19,15,25,22.10
2016,04,19,15,26,22.10
2016,04,19,15,27,22.10
2016,04,19,15,28,22.10
2016,04,19,15,29,22.10
2016,04,19,15,30,22.10
2016,04,19,15,31,22.20
2016,04,19,15,32,22.20
2016,04,19,15,33,22.30
2016,04,19,15,34,22.20
2016,04,19,15,35,22.20
2016,04,19,15,36,22.30
2016,04,19,15,37,22.30
2016,04,19,15,38,22.30
2016,04,19,15,39,22.40
2016,04,19,15,40,22.40
2016,04,19,15,41,22.40
2016,04,19,15,42,22.30
2016,04,19,15,43,22.30
2016,04,19,15,44,22.20
2016,04,19,15,45,22.10
2016,04,19,15,46,22.10
2016,04,19,15,47,22.10
2016,04,19,15,48,22.10
2016,04,19,15,49,22.10
2016,04,19,15,50,22.10
2016,04,19,15,51,22.20
2016,04,19,15,52,22.30
2016,04,19,15,53,22.30
2016,04,19,15,54,22.30
2016,04,19,15,55,22.30
2016,04,19,15,56,22.40
2016,04,19,15,57,22.30
2016,04,19,15,58,22.30
2016,04,19,15,59,22.20
2016,04,19,16,00,22.20
2016,04,19,16,01,22.10
2016,04,19,16,02,22.10
2016,04,19,16,03,22.10
2016,04,19,16,04,22.00
2016,04,19,16,05,22.10
2016,04,19,16,06,22.10
2016,04,19,16,07,22.20
2016,04,19,16,08,22.30
2016,04,19,16,09,22.30
2016,04,19,16,10,22.40
2016,04,19,16,11,22.50
2016,04,19,16,12,22.50
2016,04,19,16,13,22.60
2016,04,19,16,14,22.60
2016,04,19,16,15,22.60
2016,04,19,16,16,22.70
2016,04,19,16,17,22.70
2016,04,19,16,18,22.80
2016,04,19,16,19,22.80
2016,04,19,16,20,22.80
2016,04,19,16,21,22.90
2016,04,19,16,22,22.90
2016,04,19,16,23,22.80
2016,04,19,16,24,22.80
2016,04,19,16,25,22.80
2016,04,19,16,26,22.70
2016,04,19,16,27,22.70
2016,04,19,16,28,22.70
2016,04,19,16,29,22.70
2016,04,19,16,30,22.70
2016,04,19,16,31,22.80
2016,04,19,16,32,22.70
2016,04,19,16,33,22.70
2016,04,19,16,34,22.70
2016,04,19,16,35,22.60
2016,04,19,16,36,22.60
2016,04,19,16,37,22.60
2016,04,19,16,38,22.60
2016,04,19,16,39,22.50
2016,04,19,16,40,22.50
2016,04,19,16,41,22.40
2016,04,19,16,42,22.40
2016,04,19,16,43,22.40
2016,04,19,16,44,22.30
2016,04,19,16,45,22.30
2016,04,19,16,46,22.30
2016,04,19,16,47,22.20
2016,04,19,16,48,22.20
2016,04,19,16,49,22.20
2016,04,19,16,50,22.20
2016,04,19,16,51,22.20
2016,04,19,16,52,22.30
2016,04,19,16,53,22.30
2016,04,19,16,54,22.40
2016,04,19,16,55,22.50
2016,04,19,16,56,22.50
2016,04,19,16,57,22.60
2016,04,19,16,58,22.60
2016,04,19,16,59,22.70
2016,04,19,17,00,22.70
2016,04,19,17,01,22.80
2016,04,19,17,02,22.80
2016,04,19,17,03,22.80
2016,04,19,17,04,22.80
2016,04,19,17,05,22.80
2016,04,19,17,06,22.90
2016,04,19,17,07,22.90
2016,04,19,17,08,22.80
2016,04,19,17,09,22.70
2016,04,19,17,10,22.70
2016,04,19,17,11,22.60
2016,04,19,17,12,22.60
2016,04,19,17,13,22.50
2016,04,19,17,14,22.50
2016,04,19,17,15,22.40
2016,04,19,17,16,22.30
2016,04,19,17,17,22.30
2016,04,19,17,18,22.30
2016,04,19,17,19,22.30